Port Huron, MI

7:55 AM EDT on September 24, 2017 (GMT -0400)
Saint Clair County International

Weather History for KPHN - February, 2012

Change the Weather History Date:

Wednesday, February 8, 2012

  Actual Average (KMTC) Record (KMTC)
Temperature  
Mean Temperature 26 °F -  
Max Temperature 32 °F 28 °F 51 °F (1990)
Min Temperature 21 °F 14 °F -3 °F (1967)
Degree Days  
Heating Degree Days 38    
Moisture  
Dew Point 14 °F    
Average Humidity 62    
Maximum Humidity 80    
Minimum Humidity 44    
Precipitation  
Precipitation 0.00 in - - ()
Sea Level Pressure  
Sea Level Pressure 30.28 in    
Wind  
Wind Speed 5 mph (WNW)    
Max Wind Speed 10 mph    
Max Gust Speed -    
Visibility 10 miles    
Events      
Averages and records for this station are not official NWS values.
T = Trace of Precipitation, MM = Missing Value Source: NWS Daily Summary

Daily Weather History Graph

Daily Weather History Graph

Search for Another Location

Airport or City:

Trip Planner

Search our weather history database for the weather conditions in past years. The results will help you decide how hot, cold, wet, or windy it might be!

Date:

Astronomy

Feb. 08, 2012 Rise Set
Actual Time 7:37 AM EST 5:51 PM EST
Civil Twilight 7:07 AM EST 6:21 PM EST
Nautical Twilight 6:34 AM EST 6:54 PM EST
Astronomical Twilight 6:01 AM EST 7:27 PM EST
Moon 7:13 PM EST (2/8) 7:37 AM EST (2/8)
Length of Visible Light 11h 13m
Length of Day
10h 14m
Full, 99% of the Moon is Illuminated
Feb 8
Full
Feb 14
Last Quarter
Feb 21
New
Feb 29
First Quarter
Mar 8
Full

Hourly Weather History & Observations

Time (EST) Temp. Windchill Dew Point Humidity Pressure Visibility Wind Dir Wind Speed Gust Speed Precip Events Conditions
12:16 AM 23.0 °F 18.4 °F 17.6 °F 80% 30.36 in 10.0 mi NNW 3.5 mph - N/A   Clear
12:36 AM 23.0 °F 18.4 °F 17.6 °F 80% 30.35 in 10.0 mi NNW 3.5 mph - N/A   Scattered Clouds
12:56 AM 23.0 °F 17.0 °F 15.8 °F 74% 30.35 in 10.0 mi NNW 4.6 mph - N/A   Scattered Clouds
1:16 AM 23.0 °F 17.0 °F 15.8 °F 74% 30.35 in 10.0 mi NW 4.6 mph - N/A   Clear
1:36 AM 23.0 °F 17.0 °F 15.8 °F 74% 30.34 in 10.0 mi NNW 4.6 mph - N/A   Scattered Clouds
1:56 AM 23.0 °F 17.0 °F 15.8 °F 74% 30.34 in 10.0 mi NNW 4.6 mph - N/A   Scattered Clouds
2:16 AM 23.0 °F 17.0 °F 15.8 °F 74% 30.34 in 10.0 mi NNW 4.6 mph - N/A   Clear
2:36 AM 23.0 °F 18.4 °F 15.8 °F 74% 30.34 in 10.0 mi NW 3.5 mph - N/A   Clear
2:56 AM 23.0 °F 18.4 °F 15.8 °F 74% 30.33 in 10.0 mi NW 3.5 mph - N/A   Clear
3:17 AM 23.0 °F 18.4 °F 15.8 °F 74% 30.33 in 10.0 mi NW 3.5 mph - N/A   Clear
3:36 AM 23.0 °F 17.0 °F 15.8 °F 74% 30.32 in 10.0 mi NW 4.6 mph - N/A   Clear
3:56 AM 23.0 °F 17.0 °F 15.8 °F 74% 30.32 in 10.0 mi NW 4.6 mph - N/A   Clear
4:16 AM 23.0 °F 17.0 °F 15.8 °F 74% 30.31 in 10.0 mi NW 4.6 mph - N/A   Scattered Clouds
4:36 AM 23.0 °F 15.8 °F 15.8 °F 74% 30.31 in 10.0 mi NW 5.8 mph - N/A   Scattered Clouds
4:56 AM 23.0 °F 17.0 °F 15.8 °F 74% 30.31 in 10.0 mi NW 4.6 mph - N/A   Clear
5:16 AM 23.0 °F 17.0 °F 15.8 °F 74% 30.31 in 10.0 mi NW 4.6 mph - N/A   Clear
5:36 AM 23.0 °F 17.0 °F 15.8 °F 74% 30.31 in 10.0 mi NW 4.6 mph - N/A   Clear
5:56 AM 23.0 °F 17.0 °F 14.0 °F 68% 30.31 in 10.0 mi WNW 4.6 mph - N/A   Clear
6:16 AM 21.2 °F 14.9 °F 14.0 °F 74% 30.31 in 10.0 mi WNW 4.6 mph - N/A   Clear
6:36 AM 23.0 °F 17.0 °F 14.0 °F 68% 30.31 in 10.0 mi WNW 4.6 mph - N/A   Clear
6:56 AM 21.2 °F 14.9 °F 14.0 °F 74% 30.32 in 10.0 mi NW 4.6 mph - N/A   Clear
7:16 AM 21.2 °F 13.6 °F 14.0 °F 74% 30.32 in 10.0 mi WNW 5.8 mph - N/A   Clear
7:36 AM 21.2 °F 14.9 °F 14.0 °F 74% 30.32 in 10.0 mi WNW 4.6 mph - N/A   Clear
7:56 AM 21.2 °F 14.9 °F 14.0 °F 74% 30.32 in 10.0 mi WNW 4.6 mph - N/A   Clear
8:16 AM 23.0 °F 17.0 °F 14.0 °F 68% 30.32 in 10.0 mi NW 4.6 mph - N/A   Clear
8:36 AM 23.0 °F 17.0 °F 14.0 °F 68% 30.32 in 10.0 mi WNW 4.6 mph - N/A   Clear
8:56 AM 23.0 °F 15.8 °F 14.0 °F 68% 30.32 in 10.0 mi NW 5.8 mph - N/A   Clear
9:16 AM 23.0 °F 15.8 °F 14.0 °F 68% 30.32 in 10.0 mi NW 5.8 mph - N/A   Clear
9:36 AM 24.8 °F 19.1 °F 14.0 °F 64% 30.32 in 10.0 mi WNW 4.6 mph - N/A   Clear
9:56 AM 24.8 °F 16.9 °F 10.4 °F 54% 30.32 in 10.0 mi NW 6.9 mph - N/A   Clear
10:16 AM 24.8 °F 16.9 °F 10.4 °F 54% 30.32 in 10.0 mi NNW 6.9 mph - N/A   Clear
10:36 AM 26.6 °F 19.1 °F 10.4 °F 51% 30.31 in 10.0 mi NW 6.9 mph - N/A   Clear
10:56 AM 26.6 °F 18.2 °F 12.2 °F 55% 30.31 in 10.0 mi WNW 8.1 mph - N/A   Clear
11:16 AM 26.6 °F 19.1 °F 10.4 °F 51% 30.30 in 10.0 mi NW 6.9 mph - N/A   Clear
11:36 AM 26.6 °F 19.1 °F 10.4 °F 51% 30.29 in 10.0 mi West 6.9 mph - N/A   Clear
11:56 AM 26.6 °F 19.1 °F 12.2 °F 55% 30.29 in 10.0 mi WNW 6.9 mph - N/A   Clear
12:16 PM 28.4 °F 22.2 °F 12.2 °F 51% 30.28 in 10.0 mi NW 5.8 mph - N/A   Clear
12:36 PM 28.4 °F 22.2 °F 12.2 °F 51% 30.27 in 10.0 mi West 5.8 mph - N/A   Clear
12:56 PM 28.4 °F 21.2 °F 12.2 °F 51% 30.26 in 10.0 mi WNW 6.9 mph - N/A   Clear
1:16 PM 28.4 °F 21.2 °F 12.2 °F 51% 30.25 in 10.0 mi WNW 6.9 mph - N/A   Clear
1:36 PM 30.2 °F 24.3 °F 14.0 °F 51% 30.24 in 10.0 mi WNW 5.8 mph - N/A   Clear
1:56 PM 30.2 °F 24.3 °F 14.0 °F 51% 30.23 in 10.0 mi WNW 5.8 mph - N/A   Clear
2:16 PM 32.0 °F 24.8 °F 15.8 °F 51% 30.22 in 10.0 mi West 8.1 mph - N/A   Clear
2:36 PM 32.0 °F 27.5 °F 15.8 °F 51% 30.21 in 10.0 mi West 4.6 mph - N/A   Clear
2:56 PM 32.0 °F 25.6 °F 14.0 °F 48% 30.20 in 10.0 mi WNW 6.9 mph - N/A   Clear
3:16 PM 32.0 °F 26.4 °F 14.0 °F 48% 30.20 in 10.0 mi West 5.8 mph - N/A   Clear
3:36 PM 32.0 °F 23.6 °F 15.8 °F 51% 30.20 in 10.0 mi WSW 10.4 mph - N/A   Clear
3:56 PM 32.0 °F 26.4 °F 14.0 °F 48% 30.20 in 10.0 mi West 5.8 mph - N/A   Clear
4:16 PM 32.0 °F 28.7 °F 14.0 °F 48% 30.20 in 10.0 mi WSW 3.5 mph - N/A   Clear
4:36 PM 32.0 °F 27.5 °F 14.0 °F 48% 30.19 in 10.0 mi WSW 4.6 mph - N/A   Clear
4:56 PM 32.0 °F 27.5 °F 14.0 °F 48% 30.19 in 10.0 mi West 4.6 mph - N/A   Clear
5:16 PM 32.0 °F 26.4 °F 12.2 °F 44% 30.18 in 10.0 mi West 5.8 mph - N/A   Clear
5:36 PM 32.0 °F - 14.0 °F 48% 30.18 in 10.0 mi Calm Calm - N/A   Clear
5:56 PM 30.2 °F 26.7 °F 14.0 °F 51% 30.18 in 10.0 mi SW 3.5 mph - N/A   Clear
6:16 PM 30.2 °F 26.7 °F 14.0 °F 51% 30.19 in 10.0 mi West 3.5 mph - N/A   Clear
6:36 PM 30.2 °F - 14.0 °F 51% 30.19 in 10.0 mi Calm Calm - N/A   Clear
6:56 PM 30.2 °F 26.7 °F 14.0 °F 51% 30.19 in 10.0 mi WSW 3.5 mph - N/A   Clear
7:16 PM 28.4 °F - 14.0 °F 55% 30.19 in 10.0 mi Calm Calm - N/A   Clear
7:36 PM 28.4 °F - 14.0 °F 55% 30.19 in 10.0 mi Calm Calm - N/A   Clear
7:56 PM 28.4 °F - 15.8 °F 59% 30.18 in 10.0 mi Calm Calm - N/A   Clear
8:16 PM 26.6 °F 22.6 °F 15.8 °F 64% 30.18 in 10.0 mi SW 3.5 mph - N/A   Clear
8:36 PM 28.4 °F 22.2 °F 15.8 °F 59% 30.18 in 10.0 mi SW 5.8 mph - N/A   Clear
8:56 PM 28.4 °F 24.6 °F 15.8 °F 59% 30.18 in 10.0 mi SW 3.5 mph - N/A   Clear
9:16 PM 26.6 °F 22.6 °F 15.8 °F 64% 30.18 in 10.0 mi SW 3.5 mph - N/A   Clear
9:36 PM 28.4 °F - 15.8 °F 59% 30.18 in 10.0 mi Calm Calm - N/A   Clear
9:56 PM 28.4 °F 22.2 °F 14.0 °F 55% 30.18 in 10.0 mi SW 5.8 mph - N/A   Clear
10:16 PM 28.4 °F 23.3 °F 15.8 °F 59% 30.18 in 10.0 mi WSW 4.6 mph - N/A   Clear
10:36 PM 28.4 °F 23.3 °F 15.8 °F 59% 30.18 in 10.0 mi WSW 4.6 mph - N/A   Clear
10:56 PM 26.6 °F 20.0 °F 15.8 °F 64% 30.18 in 10.0 mi West 5.8 mph - N/A   Clear
11:16 PM 26.6 °F 20.0 °F 15.8 °F 64% 30.17 in 10.0 mi West 5.8 mph - N/A   Clear
11:36 PM 26.6 °F 17.5 °F 15.8 °F 64% 30.18 in 10.0 mi West 9.2 mph - N/A   Clear
11:56 PM 26.6 °F 17.5 °F 15.8 °F 64% 30.18 in 10.0 mi West 9.2 mph - N/A   Clear